Location: Aixovall
(42.4760°N, 1.4902°E)
Time: 23:03:02
(UTC+00:00)

Cosmos 2266 Rocket - Visible Passes

Search period start: 18 November 2025 00:00
Search period end: 28 November 2025 00:00
Orbit: 934 x 1006 km, 82.9° (Epoch: 18 November)

Date Brightness Start Highest point End Pass type
(mag) Time Alt. Az. Time Alt. Az. Time Alt. Az.
19 Nov 6.3 19:31:19 10° N 19:31:37 11° N 19:31:37 11° N visible
20 Nov 6.3 19:55:02 10° N 19:55:31 12° N 19:55:31 12° N visible
21 Nov 6.0 18:34:11 10° NNE 18:34:53 13° NNE 18:34:53 13° NNE visible
21 Nov 6.5 20:19:01 10° NNW 20:19:28 12° NNW 20:19:28 12° NNW visible
22 Nov 5.8 18:57:29 10° N 18:58:54 17° N 18:58:54 17° N visible
22 Nov 6.7 20:43:21 10° NNW 20:43:29 10° NNW 20:43:29 10° NNW visible
23 Nov 5.9 17:38:24 10° NE 17:38:26 10° NE 17:38:26 10° NE visible
23 Nov 5.7 19:21:05 10° N 19:23:00 21° N 19:23:00 21° N visible
24 Nov 5.5 18:00:35 10° NNE 18:02:39 17° NE 18:02:39 17° NE visible
24 Nov 5.7 19:44:57 10° NNW 19:47:15 23° NNW 19:47:15 23° NNW visible
25 Nov 5.0 18:23:41 10° N 18:27:04 28° NNE 18:27:04 28° NNE visible
25 Nov 5.9 20:09:06 10° NNW 20:11:41 22° NW 20:11:41 22° NW visible
26 Nov 7.0 06:12:48 10° E 06:14:35 11° ENE 06:16:21 10° ENE visible
26 Nov 4.3 18:47:10 10° N 18:51:51 49° NNE 18:51:51 49° NNE visible
26 Nov 6.3 20:33:47 10° NW 20:36:30 18° WNW 20:36:30 18° WNW visible
27 Nov 5.2 17:27:08 10° NNE 17:31:10 17° ENE 17:32:48 16° E visible
27 Nov 4.0 19:10:55 10° N 19:17:10 75° W 19:17:35 72° SW visible
